{"data":{"norad_id":64145,"intl_designator":"2025-111Y","name":"STARLINK-34186","alt_names":[],"object_type":"PAYLOAD","status":"ACTIVE","operator":null,"country":"US","launch_date":"2025-05-24","launch_site_code":"AFETR","launch_vehicle":null,"mission":null,"orbit_class":"UNKNOWN","rcs_meters":null,"size_class":null,"mass_kg":null,"dimensions":null,"purposes":["comms"],"wikipedia_slug":null,"has_3d_model":false,"image_url":null,"decayed_at":null,"tle_current":{"epoch":"2026-09-19T18:26:05.075520Z","epoch_age_seconds":203694,"freshness":"STALE","line1":"1 64145U 25111Y   26262.76811430  .00014025  00000+0  51803-3 0  9999","line2":"2 64145  43.0041  61.9464 0000385 273.6318  86.4490 15.27591159 75143","mean_motion":15.27591159,"eccentricity":3.85e-5,"inclination_deg":43.0041,"raan_deg":61.9464,"arg_perigee_deg":273.6318,"mean_anomaly_deg":86.449,"bstar":0.00051803,"rev_number":7514,"period_min":94.266060098349,"perigee_km":482.75152780437,"apogee_km":483.2798365609,"semimajor_km":6861.1526821826,"source":"CELESTRAK","updated_at":"2026-09-21T09:00:35.237069Z"}}}